Previsão horária em Cerkovlyane

Hoje, 30 Julho, Sexta-feira

Tempo Temperatura Precipitação Vento Pressão Humidade
00:00 +17°C° 0 mm 2 m/s 743 mmHg 92%
01:00 +17°C° 0 mm 2 m/s 743 mmHg 92%
02:00 +16°C° 0 mm 2 m/s 743 mmHg 92%
03:00 +16°C° 0 mm 2 m/s 743 mmHg 92%
04:00 +16°C° 0 mm 2 m/s 743 mmHg 93%
05:00 +16°C° 0 mm 2 m/s 743 mmHg 94%
06:00 +17°C° 0.1 mm 2 m/s 743 mmHg 88%
07:00 +19°C° 0.1 mm 2 m/s 743 mmHg 83%
08:00 +20°C° 0.1 mm 2 m/s 743 mmHg 78%
09:00 +21°C° 0.3 mm 3 m/s 743 mmHg 72%
10:00 +21°C° 0.3 mm 4 m/s 743 mmHg 67%
11:00 +22°C° 0.3 mm 4 m/s 743 mmHg 62%
12:00 +23°C° 0 mm 5 m/s 743 mmHg 53%
13:00 +25°C° 0 mm 5 m/s 742 mmHg 44%
14:00 +26°C° 0 mm 6 m/s 742 mmHg 35%
15:00 +26°C° 0 mm 6 m/s 742 mmHg 36%
16:00 +26°C° 0 mm 6 m/s 742 mmHg 37%
17:00 +26°C° 0 mm 6 m/s 741 mmHg 38%
18:00 +23°C° 0 mm 6 m/s 741 mmHg 41%
19:00 +22°C° 0 mm 6 m/s 741 mmHg 45%
20:00 +21°C° 0 mm 6 m/s 741 mmHg 48%
21:00 +20°C° 0 mm 5 m/s 741 mmHg 55%
22:00 +19°C° 0 mm 5 m/s 741 mmHg 62%
23:00 +16°C° 0 mm 5 m/s 741 mmHg 69%

Amanhã, 31 Julho, Sábado

Tempo Temperatura Precipitação Vento Pressão Humidade
00:00 +16°C° 0 mm 5 m/s 741 mmHg 70%
01:00 +16°C° 0 mm 5 m/s 741 mmHg 70%
02:00 +15°C° 0 mm 5 m/s 741 mmHg 70%
03:00 +15°C° 0 mm 5 m/s 741 mmHg 71%
04:00 +15°C° 0 mm 6 m/s 741 mmHg 71%
05:00 +15°C° 0 mm 6 m/s 741 mmHg 71%
06:00 +17°C° 0 mm 6 m/s 741 mmHg 68%
07:00 +19°C° 0 mm 6 m/s 742 mmHg 65%
08:00 +20°C° 0 mm 7 m/s 742 mmHg 63%
09:00 +22°C° 0 mm 7 m/s 742 mmHg 58%
10:00 +23°C° 0 mm 7 m/s 742 mmHg 54%
11:00 +24°C° 0 mm 7 m/s 742 mmHg 50%
12:00 +26°C° 0 mm 6 m/s 742 mmHg 47%
13:00 +27°C° 0 mm 6 m/s 743 mmHg 45%
14:00 +27°C° 0 mm 6 m/s 743 mmHg 43%
15:00 +27°C° 0 mm 5 m/s 743 mmHg 43%
16:00 +27°C° 0 mm 5 m/s 743 mmHg 42%
17:00 +27°C° 0 mm 5 m/s 743 mmHg 42%
18:00 +25°C° 0 mm 4 m/s 743 mmHg 49%
19:00 +22°C° 0 mm 3 m/s 743 mmHg 57%
20:00 +20°C° 0 mm 2 m/s 743 mmHg 64%
21:00 +20°C° 0 mm 2 m/s 743 mmHg 65%
22:00 +20°C° 0 mm 2 m/s 743 mmHg 67%
23:00 +19°C° 0 mm 2 m/s 743 mmHg 68%

Depois de amanhã, 1 Agosto, Domingo

Tempo Temperatura Precipitação Vento Pressão Humidade
00:00 +19°C° 0 mm 2 m/s 742 mmHg 73%
01:00 +19°C° 0 mm 3 m/s 742 mmHg 77%
02:00 +19°C° 0 mm 3 m/s 742 mmHg 82%
03:00 +19°C° 0 mm 3 m/s 742 mmHg 83%
04:00 +18°C° 0 mm 3 m/s 742 mmHg 85%
05:00 +18°C° 0 mm 3 m/s 742 mmHg 86%
06:00 +19°C° 0 mm 3 m/s 742 mmHg 83%
07:00 +20°C° 0 mm 4 m/s 742 mmHg 80%
08:00 +21°C° 0 mm 4 m/s 742 mmHg 77%
09:00 +22°C° 0 mm 4 m/s 742 mmHg 67%
10:00 +25°C° 0 mm 5 m/s 742 mmHg 56%
11:00 +27°C° 0 mm 5 m/s 743 mmHg 46%
12:00 +27°C° 0 mm 5 m/s 743 mmHg 43%
13:00 +28°C° 0 mm 5 m/s 743 mmHg 41%
14:00 +28°C° 0 mm 5 m/s 743 mmHg 38%
15:00 +28°C° 0 mm 5 m/s 743 mmHg 39%
16:00 +27°C° 0 mm 5 m/s 743 mmHg 41%
17:00 +27°C° 0 mm 5 m/s 743 mmHg 42%
18:00 +25°C° 0 mm 4 m/s 743 mmHg 48%
19:00 +24°C° 0 mm 3 m/s 743 mmHg 53%
20:00 +21°C° 0 mm 2 m/s 743 mmHg 59%
21:00 +21°C° 0 mm 2 m/s 743 mmHg 62%
22:00 +20°C° 0 mm 2 m/s 743 mmHg 65%
23:00 +21°C° 0 mm 1 m/s 743 mmHg 67%

2 Agosto, Segunda-feira

Tempo Temperatura Precipitação Vento Pressão Humidade
00:00 +20°C° 0.1 mm 1 m/s 743 mmHg 71%
01:00 +20°C° 0.1 mm 1 m/s 743 mmHg 74%
02:00 +18°C° 0.1 mm 2 m/s 743 mmHg 77%
03:00 +19°C° 0.5 mm 1 m/s 743 mmHg 83%
04:00 +18°C° 0.5 mm 1 m/s 743 mmHg 89%
05:00 +16°C° 0.5 mm 1 m/s 743 mmHg 94%
06:00 +16°C° 2.1 mm 1 m/s 742 mmHg 95%
07:00 +16°C° 2.1 mm 1 m/s 742 mmHg 96%
08:00 +16°C° 2.1 mm 2 m/s 742 mmHg 98%
09:00 +16°C° 3.1 mm 2 m/s 741 mmHg 97%
10:00 +16°C° 3.1 mm 2 m/s 741 mmHg 97%
11:00 +16°C° 3.1 mm 2 m/s 741 mmHg 97%
12:00 +16°C° 2.3 mm 2 m/s 741 mmHg 97%
13:00 +16°C° 2.3 mm 3 m/s 741 mmHg 97%
14:00 +16°C° 2.3 mm 3 m/s 741 mmHg 97%
15:00 +16°C° 0.1 mm 3 m/s 741 mmHg 96%
16:00 +16°C° 0.1 mm 3 m/s 742 mmHg 95%
17:00 +17°C° 0.1 mm 2 m/s 742 mmHg 94%
18:00 +16°C° 0 mm 2 m/s 742 mmHg 93%
19:00 +16°C° 0 mm 2 m/s 742 mmHg 93%
20:00 +16°C° 0 mm 2 m/s 742 mmHg 92%
21:00 +15°C° 0.1 mm 2 m/s 743 mmHg 93%
22:00 +14°C° 0.1 mm 3 m/s 743 mmHg 95%
23:00 +14°C° 0.1 mm 3 m/s 743 mmHg 96%

3 Agosto, Terça-feira

Tempo Temperatura Precipitação Vento Pressão Humidade
00:00 +14°C° 0 mm 3 m/s 743 mmHg 96%
01:00 +13°C° 0 mm 3 m/s 743 mmHg 97%
02:00 +13°C° 0 mm 3 m/s 744 mmHg 97%
03:00 +13°C° 0 mm 3 m/s 744 mmHg 97%
04:00 +12°C° 0 mm 3 m/s 744 mmHg 96%
05:00 +11°C° 0 mm 3 m/s 745 mmHg 96%
06:00 +13°C° 0 mm 3 m/s 745 mmHg 91%
07:00 +14°C° 0 mm 4 m/s 745 mmHg 86%
08:00 +17°C° 0 mm 4 m/s 745 mmHg 82%
09:00 +18°C° 0.2 mm 4 m/s 746 mmHg 79%
10:00 +18°C° 0.2 mm 4 m/s 746 mmHg 76%
11:00 +19°C° 0.2 mm 4 m/s 746 mmHg 74%
12:00 +19°C° 0.4 mm 4 m/s 746 mmHg 77%
13:00 +19°C° 0.4 mm 4 m/s 747 mmHg 80%
14:00 +18°C° 0.4 mm 3 m/s 747 mmHg 83%
15:00 +19°C° 0.2 mm 3 m/s 747 mmHg 78%
16:00 +20°C° 0.2 mm 3 m/s 747 mmHg 74%
17:00 +20°C° 0.2 mm 3 m/s 747 mmHg 69%
18:00 +19°C° 0.1 mm 2 m/s 747 mmHg 74%
19:00 +18°C° 0.1 mm 1 m/s 748 mmHg 79%
20:00 +16°C° 0.1 mm 1 m/s 748 mmHg 84%
21:00 +15°C° 0 mm 1 m/s 748 mmHg 85%
22:00 +15°C° 0 mm 1 m/s 749 mmHg 86%
23:00 +14°C° 0 mm 1 m/s 749 mmHg 88%

4 Agosto, Quarta-feira

Tempo Temperatura Precipitação Vento Pressão Humidade
00:00 +14°C° 0 mm 1 m/s 749 mmHg 87%
01:00 +13°C° 0 mm 1 m/s 749 mmHg 87%
02:00 +13°C° 0 mm 1 m/s 750 mmHg 87%
03:00 +13°C° 0 mm 1 m/s 750 mmHg 86%
04:00 +12°C° 0 mm 0 m/s 750 mmHg 85%
05:00 +12°C° 0 mm 0 m/s 750 mmHg 84%
06:00 +14°C° 0 mm 0 m/s 751 mmHg 79%
07:00 +15°C° 0 mm 0 m/s 751 mmHg 74%
08:00 +17°C° 0 mm 0 m/s 751 mmHg 69%
09:00 +20°C° 0.1 mm 1 m/s 751 mmHg 63%
10:00 +22°C° 0.1 mm 1 m/s 751 mmHg 57%
11:00 +23°C° 0.1 mm 1 m/s 751 mmHg 51%
12:00 +24°C° 0.1 mm 1 m/s 751 mmHg 50%
13:00 +24°C° 0.1 mm 1 m/s 751 mmHg 49%
14:00 +25°C° 0.1 mm 2 m/s 751 mmHg 48%
15:00 +24°C° 0.1 mm 1 m/s 751 mmHg 52%
16:00 +24°C° 0.1 mm 1 m/s 750 mmHg 56%
17:00 +23°C° 0.1 mm 1 m/s 750 mmHg 60%
18:00 +22°C° 0.1 mm 1 m/s 750 mmHg 64%
19:00 +20°C° 0.1 mm 2 m/s 750 mmHg 69%
20:00 +19°C° 0.1 mm 2 m/s 750 mmHg 74%
21:00 +18°C° 0.1 mm 2 m/s 750 mmHg 76%
22:00 +18°C° 0.1 mm 2 m/s 750 mmHg 79%
23:00 +17°C° 0.1 mm 2 m/s 750 mmHg 82%
Mostrar mais

Necessitamos do seu Consentimento

A Meteoprog e os seus Fornecedores de Serviços podem armazenar e aceder a dados pessoais como cookies, identificadores do dispositivo ou outras tecnologias semelhantes existentes no seu dispositivo e processar estes dados para personalizar conteúdos e anúncios, assim como funcionalidades nas redes sociais e análise de tráfego.

  • Armazenar e/ou aceder a informações no seu dispositivo

    Os cookies, identificadores do dispositivo ou outras informações podem ser armazenados ou acedidos no seu dispositivo, para os fins acima indicados.

  • Anúncios e conteúdos personalizados, medição de anúncios e conteúdos, dados sobre o público-alvo e desenvolvimento de produtos

    Os anúncios e os conteúdos podem ser personalizados com base num perfil. Podem ser adicionados dados adicionais para uma maior personalização dos anúncios e dos conteúdos. A eficácia dos anúncios e dos conteúdos pode ser medida. Podem ser obtidas informações sobre o público que visualizou os anúncios e os conteúdos. Estes dados podem ser usados para desenvolver ou melhorar sistemas, softwares ou a experiência do utilizador.

Ao clicar em "Eu concordo”, permitirá o uso de cookies, identificadores do dispositivo e web beacons mencionados ou outras tecnologias semelhantes. As configurações do navegador do seu dispositivo podem ser alteradas.

Para certos fins, podem ser invocados interesses legítimos ao invés de consentimento. Pode ler mais informação sobre este assunto na nossa Política de Privacidade e Cookies.